Current Version              Previous Version:    01  02  03  04  05  06  07  08  09  10  11  12  13  14  15  16  17  18  19  20  21  22  23  24  25  26  27  28  29  30  
   31  32  33  34  35  36  37  38  39  40  41  42  43  44  45  46  47  48  49  50  51  52  53  54  55  56  57  58  59  60  

[Printable]
229
ASUS44 KFWD 210701
RWRTX
NORTH TEXAS HOURLY WEATHER ROUNDUP
NATIONAL WEATHER SERVICE FORT WORTH TX
200 AM CDT THU AUG 21 2014

NOTE: "FAIR" INDICATES FEW OR NO CLOUDS BELOW 12,000 FEET WITH NO
SIGNIFICANT WEATHER AND/OR OBSTRUCTIONS TO VISIBILITY.

TXZ118-119-210800-
DALLAS/FORT WORTH METROPLEX

CITY           SKY/WX    TMP DP  RH WIND       PRES   REMARKS
DFW AIRPORT    CLEAR     83  72  69 S15       29.96S
DALLAS LOVE    CLEAR     82  72  71 S12       29.97S
FTW MEACHAM    CLEAR     84  71  65 S16       29.95S
DAL-EXECUTIVE  CLEAR     82  72  71 S10G17    29.97S
FTW-ALLIANCE   CLEAR     81  70  69 S14G21    29.95R
FTW-NAS-JRB    CLEAR     86  69  56 S16G25    29.99S HX  90
ARLINGTON      CLEAR     82  71  69 S13       29.97R
GRAND PRAIRIE  CLEAR     82  70  68 SE10G18   29.98S
ADDISON        CLEAR     82  71  67 S12G20    29.98F
MESQUITE       CLEAR     79  72  78 S9        29.98S
LANCASTER      CLEAR     80  71  74 S7        29.99S
$$

TXZ091>094-102>105-117-120-121-131>134-210800-
NORTH CENTRAL TEXAS

CITY           SKY/WX    TMP DP  RH WIND       PRES   REMARKS
SHRMAN/DENISON CLEAR     81  70  69 S13       29.97F
GAINESVILLE    CLEAR     80  71  74 SE12      29.97S
BOWIE          CLEAR     81  69  66 S14G20    29.94F
BRIDGEPORT     CLEAR     82  66  59 S15       29.95F
DECATUR        CLEAR     81  69  66 S13G18    29.96S
DENTON         CLEAR     82  71  69 S15G23    29.95F
MCKINNEY       CLEAR     80  72  76 S14       29.97S
GREENVILLE     CLEAR     79  72  78 S9        29.99S
ROCKWALL       CLEAR     80  73  80 S12G18    29.97S
TERRELL        CLEAR     81  75  82 S13       29.99S
WAXAHACHIE     CLEAR     79  70  74 S8        29.99F
CLEBURNE       CLEAR     81  73  78 S12       30.00R
GRANBURY       CLEAR     84  70  61 SE14G20   29.97S
$$

TXZ083>090-098>101-113>116-127>130-139>142-154-155-210800-
WESTERN NORTH TEXAS

CITY           SKY/WX    TMP DP  RH WIND       PRES   REMARKS
WICHITA FALLS  CLEAR     83  66  56 S14       29.90R
WF-KICKAPOO    CLEAR     83  64  53 S12       29.92S
VERNON         CLEAR     83  53  36 S8        29.90S
ABILENE        CLEAR     83  64  52 MISG      29.96S
ABILENE-DYESS  PTCLDY    79  64  58 S15       29.95S
BRECKENRIDGE   CLEAR     85  64  49 S13G18    29.95R HAZE
MINERAL WELLS  CLEAR     81  69  67 S10       29.94S
STEPHENVILLE   CLEAR     82  67  62 S9G17     30.00R
COMANCHE       CLEAR     82  68  62 S13G18    29.98R
BROWNWOOD      MOCLDY    82  68  61 S14       29.98R
COLEMAN        CLEAR     80  66  64 S13       29.99R
BRADY          CLEAR     81  68  65 SE17      29.99S
$$

TXZ143>147-156>162-174-175-210800-
CENTRAL TEXAS

CITY           SKY/WX    TMP DP  RH WIND       PRES   REMARKS
WACO           CLEAR     82  72  71 S18       29.99S
WACO-MCGREGOR  CLEAR     81  70  69 S15G21    30.01R
HILLSBORO      CLEAR     82  71  70 S18       29.99R
CORSICANA      CLEAR     81  73  76 S14       30.01R
MEXIA          CLEAR     77  74  89 S6        30.00S
CAMERON        CLEAR     81  74  79 S8        30.01S
TEMPLE         CLEAR     81  68  65 S15       30.00R
KILLEEN        CLEAR     81  72  74 SE14      30.00S
KILLEEN-SKYLRK CLEAR     81  66  61 S13G21    30.01R
FORT HOOD      CLEAR     82  71  69 SE9G21    30.00S
HAMILTON       CLEAR     81  68  65 S14G20    30.00S
LAMPASAS       CLEAR     81  74  79 S10G16    30.00S
$$

TXZ095>097-106>112-122>126-135>138-148>153-164>167-210800-
EAST TEXAS

CITY           SKY/WX    TMP DP  RH WIND       PRES   REMARKS
PARIS          CLEAR     75  64  69 SE7       30.00F
SULPHUR SPRNGS CLEAR     80  71  74 S9        30.01F
CLARKSVILLE    PTCLDY    78  70  74 SE6       30.00F
MOUNT PLEASANT CLEAR     76  70  83 SE5       30.03S
MINEOLA        CLOUDY    79  73  83 S7        30.01F
TYLER          CLEAR     78  73  84 S12       30.01S
LONGVIEW       CLEAR     75  71  87 SE5       30.02S
MARSHALL       CLEAR     76  73  88 CALM      30.06S
ATHENS         CLEAR     77  73  88 S7        30.01S
PALESTINE      CLEAR     78  75  90 SE6       30.03S
JACKSONVILLE   CLEAR     75  73  93 S8        30.06R
HENDERSON      CLEAR     75  73  91 S3        30.04S
NACOGDOCHES    CLEAR     73  70  88 SE3       30.05R
LUFKIN         CLEAR     76  72  87 SE3       30.04R
$$

SUPPLEMENTAL OBSERVATIONS (CENTRAL)

CITY           SKY/WX    TMP DP  RH WIND       PRES   REMARKS
$$

SUPPLEMENTAL OBSERVATIONS (WEST)

CITY           SKY/WX    TMP DP  RH WIND       PRES   REMARKS
$$

SUPPLEMENTAL OBSERVATIONS (EAST)

CITY           SKY/WX    TMP DP  RH WIND       PRES   REMARKS
$$

SUPPLEMENTAL OBSERVATIONS ARE A COLLECTION OF AUTOMATED INSTRUMENTS
THAT ARE MAINTAINED BY A VARIETY OF FEDERAL AND STATE AGENCIES.
CERTAIN ELEMENTS...SUCH AS HUMIDITY VALUES AND SUSTAINED WIND
SPEEDS...MAY BE APPROXIMATED.